Location: Ebenezer
(18.2167°N, 63.0667°W)
Time: 18:53:47
(UTC+00:00)

CCE 1 Rocket - Pass Details

Date: 26 January 2020
Orbit: 544 x 3983 km, 28.9° (Epoch: 16 February)

Event Time Altitude Azimuth Distance (km) Brightness Sun altitude
Rises 22:14:40 0° 252° (WSW) 4,414 11.5 -3.5°
Reaches altitude 10° 22:18:23 10° 255° (WSW) 2,954 9.0 -4.3°
Maximum altitude 22:24:49 64° 336° (NNW) 802 4.2 -5.7°
Drops below altitude 10° 22:28:55 10° 59° (ENE) 1,904 5.4 -6.7°
Enters shadow 22:29:20 - 60° (ENE) 2,074 5.6 -6.8°
